Date_Time,Julian_Date,Latitude,Longitude,Instrument_Depth,U,V,Speed,Direction
(yyyy-mm-dd hh:mn:ss UTC),(JD),(+ deg. North),(+ deg. East),(m),(cm/s),(cm/s),(cm/s),(deg True)
1984-02-23 18:00:00 UTC,2445754.250000,28.7317,-95.2428,0215,2.29,10.76,11.0000,12.0000
1984-02-23 18:30:00 UTC,2445754.270833,28.7317,-95.2428,0215,1.91,9.82,10.0000,11.0000
1984-02-23 19:00:00 UTC,2445754.291667,28.7317,-95.2428,0215,1.91,9.82,10.0000,11.0000
1984-02-23 19:30:00 UTC,2445754.312500,28.7317,-95.2428,0215,2.47,10.72,11.0000,13.0000
1984-02-23 20:00:00 UTC,2445754.333333,28.7317,-95.2428,0215,2.85,10.63,11.0000,15.0000
1984-02-23 20:30:00 UTC,2445754.354167,28.7317,-95.2428,0215,3.31,11.54,12.0000,16.0000
1984-02-23 21:00:00 UTC,2445754.375000,28.7317,-95.2428,0215,3.91,11.35,12.0000,19.0000
1984-02-23 21:30:00 UTC,2445754.395833,28.7317,-95.2428,0215,4.30,11.20,12.0000,21.0000
1984-02-23 22:00:00 UTC,2445754.416667,28.7317,-95.2428,0215,4.50,11.13,12.0000,22.0000
1984-02-23 22:30:00 UTC,2445754.437500,28.7317,-95.2428,0215,4.69,11.05,12.0000,23.0000
1984-02-23 23:00:00 UTC,2445754.458333,28.7317,-95.2428,0215,4.69,11.05,12.0000,23.0000
1984-02-23 23:30:00 UTC,2445754.479167,28.7317,-95.2428,0215,4.50,11.13,12.0000,22.0000
1984-02-24 00:00:00 UTC,2445754.500000,28.7317,-95.2428,0215,4.10,11.28,12.0000,20.0000
1984-02-24 00:30:00 UTC,2445754.520833,28.7317,-95.2428,0215,3.94,10.27,11.0000,21.0000
1984-02-24 01:00:00 UTC,2445754.541667,28.7317,-95.2428,0215,4.30,10.13,11.0000,23.0000
1984-02-24 01:30:00 UTC,2445754.562500,28.7317,-95.2428,0215,3.75,9.27,10.0000,22.0000
1984-02-24 02:00:00 UTC,2445754.583333,28.7317,-95.2428,0215,2.78,8.56,9.0000,18.0000
1984-02-24 02:30:00 UTC,2445754.604167,28.7317,-95.2428,0215,2.07,7.73,8.0000,15.0000
1984-02-24 03:00:00 UTC,2445754.625000,28.7317,-95.2428,0215,1.53,7.85,8.0000,11.0000
1984-02-24 03:30:00 UTC,2445754.645833,28.7317,-95.2428,0215,0.85,6.95,7.0000,7.0000
1984-02-24 04:00:00 UTC,2445754.666667,28.7317,-95.2428,0215,0.21,6.00,6.0000,2.0000
1984-02-24 04:30:00 UTC,2445754.687500,28.7317,-95.2428,0215,-0.73,2.91,3.0000,346.0000
1984-02-24 05:00:00 UTC,2445754.708333,28.7317,-95.2428,0215,-1.99,-0.17,2.0000,265.0000
1984-02-24 05:30:00 UTC,2445754.729167,28.7317,-95.2428,0215,-1.45,-2.62,3.0000,209.0000
1984-02-24 06:00:00 UTC,2445754.750000,28.7317,-95.2428,0215,-0.90,-3.90,4.0000,193.0000
1984-02-24 06:30:00 UTC,2445754.770833,28.7317,-95.2428,0215,-0.56,-3.96,4.0000,188.0000
1984-02-24 07:00:00 UTC,2445754.791667,28.7317,-95.2428,0215,-0.56,-3.96,4.0000,188.0000
1984-02-24 07:30:00 UTC,2445754.812500,28.7317,-95.2428,0215,-0.49,-3.97,4.0000,187.0000
1984-02-24 08:00:00 UTC,2445754.833333,28.7317,-95.2428,0215,-0.21,-3.99,4.0000,183.0000
1984-02-24 08:30:00 UTC,2445754.854167,28.7317,-95.2428,0215,-0.14,-4.00,4.0000,182.0000
1984-02-24 09:00:00 UTC,2445754.875000,28.7317,-95.2428,0215,-0.35,-4.99,5.0000,184.0000
1984-02-24 09:30:00 UTC,2445754.895833,28.7317,-95.2428,0215,-0.44,-4.98,5.0000,185.0000
1984-02-24 10:00:00 UTC,2445754.916667,28.7317,-95.2428,0215,-0.14,-4.00,4.0000,182.0000
1984-02-24 10:30:00 UTC,2445754.937500,28.7317,-95.2428,0215,0.37,-2.98,3.0000,173.0000
1984-02-24 11:00:00 UTC,2445754.958333,28.7317,-95.2428,0215,0.67,-2.92,3.0000,167.0000
1984-02-24 11:30:00 UTC,2445754.979167,28.7317,-95.2428,0215,0.78,-1.84,2.0000,157.0000
1984-02-24 12:00:00 UTC,2445755.000000,28.7317,-95.2428,0215,0.92,-0.39,1.0000,113.0000
1984-02-24 12:30:00 UTC,2445755.020833,28.7317,-95.2428,0215,0.78,0.63,1.0000,51.0000
1984-02-24 13:00:00 UTC,2445755.041667,28.7317,-95.2428,0215,0.64,0.77,1.0000,40.0000
1984-02-24 13:30:00 UTC,2445755.062500,28.7317,-95.2428,0215,0.53,0.85,1.0000,32.0000
1984-02-24 14:00:00 UTC,2445755.083333,28.7317,-95.2428,0215,0.10,0.99,1.0000,6.0000
1984-02-24 14:30:00 UTC,2445755.104167,28.7317,-95.2428,0215,-0.37,0.93,1.0000,338.0000
1984-02-24 15:00:00 UTC,2445755.125000,28.7317,-95.2428,0215,-0.50,0.87,1.0000,330.0000
1984-02-24 15:30:00 UTC,2445755.145833,28.7317,-95.2428,0215,-0.26,0.97,1.0000,345.0000
1984-02-24 16:00:00 UTC,2445755.166667,28.7317,-95.2428,0215,0.00,0.00,0.0000,42.0000
1984-02-24 16:30:00 UTC,2445755.187500,28.7317,-95.2428,0215,1.00,-0.05,1.0000,93.0000
1984-02-24 17:00:00 UTC,2445755.208333,28.7317,-95.2428,0215,0.97,-0.24,1.0000,104.0000
1984-02-24 17:30:00 UTC,2445755.229167,28.7317,-95.2428,0215,0.98,-0.19,1.0000,101.0000
1984-02-24 18:00:00 UTC,2445755.250000,28.7317,-95.2428,0215,0.90,-0.44,1.0000,116.0000
1984-02-24 18:30:00 UTC,2445755.270833,28.7317,-95.2428,0215,1.77,-0.94,2.0000,118.0000
1984-02-24 19:00:00 UTC,2445755.291667,28.7317,-95.2428,0215,1.85,-0.75,2.0000,112.0000
1984-02-24 19:30:00 UTC,2445755.312500,28.7317,-95.2428,0215,1.98,-0.28,2.0000,98.0000
1984-02-24 20:00:00 UTC,2445755.333333,28.7317,-95.2428,0215,1.85,0.75,2.0000,68.0000
1984-02-24 20:30:00 UTC,2445755.354167,28.7317,-95.2428,0215,1.03,1.71,2.0000,31.0000
1984-02-24 21:00:00 UTC,2445755.375000,28.7317,-95.2428,0215,1.55,2.57,3.0000,31.0000
1984-02-24 21:30:00 UTC,2445755.395833,28.7317,-95.2428,0215,3.53,4.85,6.0000,36.0000
1984-02-24 22:00:00 UTC,2445755.416667,28.7317,-95.2428,0215,3.50,6.06,7.0000,30.0000
1984-02-24 22:30:00 UTC,2445755.437500,28.7317,-95.2428,0215,2.34,5.52,6.0000,23.0000
1984-02-24 23:00:00 UTC,2445755.458333,28.7317,-95.2428,0215,2.54,5.44,6.0000,25.0000
1984-02-24 23:30:00 UTC,2445755.479167,28.7317,-95.2428,0215,2.72,5.35,6.0000,27.0000
1984-02-25 00:00:00 UTC,2445755.500000,28.7317,-95.2428,0215,1.71,4.70,5.0000,20.0000
1984-02-25 00:30:00 UTC,2445755.520833,28.7317,-95.2428,0215,0.95,4.91,5.0000,11.0000
1984-02-25 01:00:00 UTC,2445755.541667,28.7317,-95.2428,0215,0.76,3.93,4.0000,11.0000
1984-02-25 01:30:00 UTC,2445755.562500,28.7317,-95.2428,0215,1.17,3.83,4.0000,17.0000
1984-02-25 02:00:00 UTC,2445755.583333,28.7317,-95.2428,0215,1.03,2.82,3.0000,20.0000
1984-02-25 02:30:00 UTC,2445755.604167,28.7317,-95.2428,0215,0.33,0.95,1.0000,19.0000
1984-02-25 03:00:00 UTC,2445755.625000,28.7317,-95.2428,0215,-0.45,-0.89,1.0000,207.0000
1984-02-25 03:30:00 UTC,2445755.645833,28.7317,-95.2428,0215,-1.27,-2.72,3.0000,205.0000
1984-02-25 04:00:00 UTC,2445755.666667,28.7317,-95.2428,0215,-1.12,-2.78,3.0000,202.0000
1984-02-25 04:30:00 UTC,2445755.687500,28.7317,-95.2428,0215,-0.93,-2.85,3.0000,198.0000
1984-02-25 05:00:00 UTC,2445755.708333,28.7317,-95.2428,0215,-0.62,-2.93,3.0000,192.0000
1984-02-25 05:30:00 UTC,2445755.729167,28.7317,-95.2428,0215,-0.52,-2.95,3.0000,190.0000
1984-02-25 06:00:00 UTC,2445755.750000,28.7317,-95.2428,0215,-0.42,-1.96,2.0000,192.0000
1984-02-25 06:30:00 UTC,2445755.770833,28.7317,-95.2428,0215,-0.10,-2.00,2.0000,183.0000
1984-02-25 07:00:00 UTC,2445755.791667,28.7317,-95.2428,0215,0.52,-1.93,2.0000,165.0000
1984-02-25 07:30:00 UTC,2445755.812500,28.7317,-95.2428,0215,0.75,-1.85,2.0000,158.0000
1984-02-25 08:00:00 UTC,2445755.833333,28.7317,-95.2428,0215,0.98,-2.84,3.0000,161.0000
1984-02-25 08:30:00 UTC,2445755.854167,28.7317,-95.2428,0215,-0.14,-4.00,4.0000,182.0000
1984-02-25 09:00:00 UTC,2445755.875000,28.7317,-95.2428,0215,-2.03,-4.57,5.0000,204.0000
1984-02-25 09:30:00 UTC,2445755.895833,28.7317,-95.2428,0215,-2.44,-5.48,6.0000,204.0000
1984-02-25 10:00:00 UTC,2445755.916667,28.7317,-95.2428,0215,-1.95,-5.67,6.0000,199.0000
1984-02-25 10:30:00 UTC,2445755.937500,28.7317,-95.2428,0215,-2.25,-5.56,6.0000,202.0000
1984-02-25 11:00:00 UTC,2445755.958333,28.7317,-95.2428,0215,-2.63,-5.39,6.0000,206.0000
1984-02-25 11:30:00 UTC,2445755.979167,28.7317,-95.2428,0215,-2.34,-5.52,6.0000,203.0000
1984-02-25 12:00:00 UTC,2445756.000000,28.7317,-95.2428,0215,-1.63,-4.73,5.0000,199.0000
1984-02-25 12:30:00 UTC,2445756.020833,28.7317,-95.2428,0215,-1.10,-3.85,4.0000,196.0000
1984-02-25 13:00:00 UTC,2445756.041667,28.7317,-95.2428,0215,-0.42,-1.96,2.0000,192.0000
1984-02-25 13:30:00 UTC,2445756.062500,28.7317,-95.2428,0215,-0.21,-0.98,1.0000,192.0000
1984-02-25 14:00:00 UTC,2445756.083333,28.7317,-95.2428,0215,-0.00,-0.00,0.0000,203.0000
1984-02-25 14:30:00 UTC,2445756.104167,28.7317,-95.2428,0215,-0.00,-0.00,0.0000,193.0000
1984-02-25 15:00:00 UTC,2445756.125000,28.7317,-95.2428,0215,0.68,-0.73,1.0000,137.0000
1984-02-25 15:30:00 UTC,2445756.145833,28.7317,-95.2428,0215,0.83,-0.56,1.0000,124.0000
1984-02-25 16:00:00 UTC,2445756.166667,28.7317,-95.2428,0215,1.36,-1.46,2.0000,137.0000
1984-02-25 16:30:00 UTC,2445756.187500,28.7317,-95.2428,0215,0.78,-1.84,2.0000,157.0000
1984-02-25 17:00:00 UTC,2445756.208333,28.7317,-95.2428,0215,1.43,-3.73,4.0000,159.0000
1984-02-25 17:30:00 UTC,2445756.229167,28.7317,-95.2428,0215,1.69,-3.63,4.0000,155.0000
1984-02-25 18:00:00 UTC,2445756.250000,28.7317,-95.2428,0215,1.56,-3.68,4.0000,157.0000
1984-02-25 18:30:00 UTC,2445756.270833,28.7317,-95.2428,0215,0.07,-4.00,4.0000,179.0000
1984-02-25 19:00:00 UTC,2445756.291667,28.7317,-95.2428,0215,-2.58,-4.29,5.0000,211.0000
1984-02-25 19:30:00 UTC,2445756.312500,28.7317,-95.2428,0215,-3.69,-4.73,6.0000,218.0000
1984-02-25 20:00:00 UTC,2445756.333333,28.7317,-95.2428,0215,-2.63,-5.39,6.0000,206.0000
1984-02-25 20:30:00 UTC,2445756.354167,28.7317,-95.2428,0215,-1.45,-5.82,6.0000,194.0000
1984-02-25 21:00:00 UTC,2445756.375000,28.7317,-95.2428,0215,-1.10,-6.91,7.0000,189.0000
1984-02-25 21:30:00 UTC,2445756.395833,28.7317,-95.2428,0215,-1.25,-7.90,8.0000,189.0000
1984-02-25 22:00:00 UTC,2445756.416667,28.7317,-95.2428,0215,-1.25,-8.91,9.0000,188.0000
1984-02-25 22:30:00 UTC,2445756.437500,28.7317,-95.2428,0215,-1.25,-8.91,9.0000,188.0000
1984-02-25 23:00:00 UTC,2445756.458333,28.7317,-95.2428,0215,-1.25,-7.90,8.0000,189.0000
1984-02-25 23:30:00 UTC,2445756.479167,28.7317,-95.2428,0215,-1.25,-7.90,8.0000,189.0000
1984-02-26 00:00:00 UTC,2445756.500000,28.7317,-95.2428,0215,-0.84,-7.96,8.0000,186.0000
1984-02-26 00:30:00 UTC,2445756.520833,28.7317,-95.2428,0215,-0.28,-8.00,8.0000,182.0000
1984-02-26 01:00:00 UTC,2445756.541667,28.7317,-95.2428,0215,0.28,-8.00,8.0000,178.0000
1984-02-26 01:30:00 UTC,2445756.562500,28.7317,-95.2428,0215,0.56,-7.98,8.0000,176.0000
1984-02-26 02:00:00 UTC,2445756.583333,28.7317,-95.2428,0215,0.70,-7.97,8.0000,175.0000
1984-02-26 02:30:00 UTC,2445756.604167,28.7317,-95.2428,0215,0.84,-7.96,8.0000,174.0000
1984-02-26 03:00:00 UTC,2445756.625000,28.7317,-95.2428,0215,0.70,-7.97,8.0000,175.0000
1984-02-26 03:30:00 UTC,2445756.645833,28.7317,-95.2428,0215,0.56,-7.98,8.0000,176.0000
1984-02-26 04:00:00 UTC,2445756.666667,28.7317,-95.2428,0215,0.56,-7.98,8.0000,176.0000
1984-02-26 04:30:00 UTC,2445756.687500,28.7317,-95.2428,0215,0.42,-7.99,8.0000,177.0000
1984-02-26 05:00:00 UTC,2445756.708333,28.7317,-95.2428,0215,-0.56,-7.98,8.0000,184.0000
1984-02-26 05:30:00 UTC,2445756.729167,28.7317,-95.2428,0215,-0.84,-7.96,8.0000,186.0000
1984-02-26 06:00:00 UTC,2445756.750000,28.7317,-95.2428,0215,-0.56,-7.98,8.0000,184.0000
1984-02-26 06:30:00 UTC,2445756.770833,28.7317,-95.2428,0215,-0.28,-8.00,8.0000,182.0000
1984-02-26 07:00:00 UTC,2445756.791667,28.7317,-95.2428,0215,-0.63,-8.98,9.0000,184.0000
1984-02-26 07:30:00 UTC,2445756.812500,28.7317,-95.2428,0215,-0.94,-8.95,9.0000,186.0000
1984-02-26 08:00:00 UTC,2445756.833333,28.7317,-95.2428,0215,-0.94,-8.95,9.0000,186.0000
1984-02-26 08:30:00 UTC,2445756.854167,28.7317,-95.2428,0215,-0.47,-8.99,9.0000,183.0000
1984-02-26 09:00:00 UTC,2445756.875000,28.7317,-95.2428,0215,-1.10,-8.93,9.0000,187.0000
1984-02-26 09:30:00 UTC,2445756.895833,28.7317,-95.2428,0215,-2.47,-10.72,11.0000,193.0000
1984-02-26 10:00:00 UTC,2445756.916667,28.7317,-95.2428,0215,-3.11,-11.59,12.0000,195.0000
1984-02-26 10:30:00 UTC,2445756.937500,28.7317,-95.2428,0215,-2.59,-9.66,10.0000,195.0000
1984-02-26 11:00:00 UTC,2445756.958333,28.7317,-95.2428,0215,-1.72,-8.83,9.0000,191.0000
1984-02-26 11:30:00 UTC,2445756.979167,28.7317,-95.2428,0215,-1.56,-8.86,9.0000,190.0000
1984-02-26 12:00:00 UTC,2445757.000000,28.7317,-95.2428,0215,-1.87,-8.80,9.0000,192.0000
1984-02-26 12:30:00 UTC,2445757.020833,28.7317,-95.2428,0215,-1.72,-8.83,9.0000,191.0000
1984-02-26 13:00:00 UTC,2445757.041667,28.7317,-95.2428,0215,-0.84,-7.96,8.0000,186.0000
1984-02-26 13:30:00 UTC,2445757.062500,28.7317,-95.2428,0215,-0.70,-7.97,8.0000,185.0000
1984-02-26 14:00:00 UTC,2445757.083333,28.7317,-95.2428,0215,-1.41,-8.89,9.0000,189.0000
1984-02-26 14:30:00 UTC,2445757.104167,28.7317,-95.2428,0215,-1.41,-8.89,9.0000,189.0000
1984-02-26 15:00:00 UTC,2445757.125000,28.7317,-95.2428,0215,-0.78,-8.97,9.0000,185.0000
1984-02-26 15:30:00 UTC,2445757.145833,28.7317,-95.2428,0215,-0.70,-7.97,8.0000,185.0000
1984-02-26 16:00:00 UTC,2445757.166667,28.7317,-95.2428,0215,-0.56,-7.98,8.0000,184.0000
1984-02-26 16:30:00 UTC,2445757.187500,28.7317,-95.2428,0215,-0.28,-8.00,8.0000,182.0000
1984-02-26 17:00:00 UTC,2445757.208333,28.7317,-95.2428,0215,-0.63,-8.98,9.0000,184.0000
1984-02-26 17:30:00 UTC,2445757.229167,28.7317,-95.2428,0215,-2.08,-9.78,10.0000,192.0000
1984-02-26 18:00:00 UTC,2445757.250000,28.7317,-95.2428,0215,-2.92,-9.56,10.0000,197.0000
1984-02-26 18:30:00 UTC,2445757.270833,28.7317,-95.2428,0215,-2.93,-8.51,9.0000,199.0000
1984-02-26 19:00:00 UTC,2445757.291667,28.7317,-95.2428,0215,-3.80,-8.16,9.0000,205.0000
1984-02-26 19:30:00 UTC,2445757.312500,28.7317,-95.2428,0215,-3.66,-8.22,9.0000,204.0000
1984-02-26 20:00:00 UTC,2445757.333333,28.7317,-95.2428,0215,-3.75,-9.27,10.0000,202.0000
1984-02-26 20:30:00 UTC,2445757.354167,28.7317,-95.2428,0215,-4.23,-9.06,10.0000,205.0000
1984-02-26 21:00:00 UTC,2445757.375000,28.7317,-95.2428,0215,-4.69,-8.83,10.0000,208.0000
1984-02-26 21:30:00 UTC,2445757.395833,28.7317,-95.2428,0215,-5.59,-8.29,10.0000,214.0000
1984-02-26 22:00:00 UTC,2445757.416667,28.7317,-95.2428,0215,-5.29,-7.28,9.0000,216.0000
1984-02-26 22:30:00 UTC,2445757.437500,28.7317,-95.2428,0215,-4.64,-7.71,9.0000,211.0000
1984-02-26 23:00:00 UTC,2445757.458333,28.7317,-95.2428,0215,-3.25,-7.31,8.0000,204.0000
1984-02-26 23:30:00 UTC,2445757.479167,28.7317,-95.2428,0215,-1.65,-5.77,6.0000,196.0000
1984-02-27 00:00:00 UTC,2445757.500000,28.7317,-95.2428,0215,-0.95,-4.91,5.0000,191.0000
1984-02-27 00:30:00 UTC,2445757.520833,28.7317,-95.2428,0215,-0.61,-4.96,5.0000,187.0000
1984-02-27 01:00:00 UTC,2445757.541667,28.7317,-95.2428,0215,0.09,-5.00,5.0000,179.0000
1984-02-27 01:30:00 UTC,2445757.562500,28.7317,-95.2428,0215,-0.21,-6.00,6.0000,182.0000
1984-02-27 02:00:00 UTC,2445757.583333,28.7317,-95.2428,0215,-1.34,-6.87,7.0000,191.0000
1984-02-27 02:30:00 UTC,2445757.604167,28.7317,-95.2428,0215,-1.65,-5.77,6.0000,196.0000
1984-02-27 03:00:00 UTC,2445757.625000,28.7317,-95.2428,0215,-1.38,-4.81,5.0000,196.0000
1984-02-27 03:30:00 UTC,2445757.645833,28.7317,-95.2428,0215,-1.04,-4.89,5.0000,192.0000
1984-02-27 04:00:00 UTC,2445757.666667,28.7317,-95.2428,0215,-0.52,-4.97,5.0000,186.0000
1984-02-27 04:30:00 UTC,2445757.687500,28.7317,-95.2428,0215,-0.35,-4.99,5.0000,184.0000
1984-02-27 05:00:00 UTC,2445757.708333,28.7317,-95.2428,0215,-0.56,-3.96,4.0000,188.0000
1984-02-27 05:30:00 UTC,2445757.729167,28.7317,-95.2428,0215,-0.47,-2.96,3.0000,189.0000
1984-02-27 06:00:00 UTC,2445757.750000,28.7317,-95.2428,0215,0.16,-3.00,3.0000,177.0000
1984-02-27 06:30:00 UTC,2445757.770833,28.7317,-95.2428,0215,-0.10,-2.00,2.0000,183.0000
1984-02-27 07:00:00 UTC,2445757.791667,28.7317,-95.2428,0215,-1.34,-1.49,2.0000,222.0000
1984-02-27 07:30:00 UTC,2445757.812500,28.7317,-95.2428,0215,-1.98,-0.28,2.0000,262.0000
1984-02-27 08:00:00 UTC,2445757.833333,28.7317,-95.2428,0215,-1.55,2.57,3.0000,329.0000
1984-02-27 08:30:00 UTC,2445757.854167,28.7317,-95.2428,0215,-1.66,7.83,8.0000,348.0000
1984-02-27 09:00:00 UTC,2445757.875000,28.7317,-95.2428,0215,-0.63,11.98,12.0000,357.0000
1984-02-27 09:30:00 UTC,2445757.895833,28.7317,-95.2428,0215,1.12,15.96,16.0000,4.0000
1984-02-27 10:00:00 UTC,2445757.916667,28.7317,-95.2428,0215,3.63,18.65,19.0000,11.0000
1984-02-27 10:30:00 UTC,2445757.937500,28.7317,-95.2428,0215,5.18,19.32,20.0000,15.0000
1984-02-27 11:00:00 UTC,2445757.958333,28.7317,-95.2428,0215,5.51,19.23,20.0000,16.0000
1984-02-27 11:30:00 UTC,2445757.979167,28.7317,-95.2428,0215,6.06,21.15,22.0000,16.0000
1984-02-27 12:00:00 UTC,2445758.000000,28.7317,-95.2428,0215,7.31,23.91,25.0000,17.0000
1984-02-27 12:30:00 UTC,2445758.020833,28.7317,-95.2428,0215,9.12,26.47,28.0000,19.0000
1984-02-27 13:00:00 UTC,2445758.041667,28.7317,-95.2428,0215,11.11,28.94,31.0000,21.0000
1984-02-27 13:30:00 UTC,2445758.062500,28.7317,-95.2428,0215,12.74,31.52,34.0000,22.0000
1984-02-27 14:00:00 UTC,2445758.083333,28.7317,-95.2428,0215,14.07,33.14,36.0000,23.0000
1984-02-27 14:30:00 UTC,2445758.104167,28.7317,-95.2428,0215,15.05,33.80,37.0000,24.0000
1984-02-27 15:00:00 UTC,2445758.125000,28.7317,-95.2428,0215,15.24,35.90,39.0000,23.0000
1984-02-27 15:30:00 UTC,2445758.145833,28.7317,-95.2428,0215,14.69,38.28,41.0000,21.0000
1984-02-27 16:00:00 UTC,2445758.166667,28.7317,-95.2428,0215,15.05,39.21,42.0000,21.0000
1984-02-27 16:30:00 UTC,2445758.187500,28.7317,-95.2428,0215,15.05,39.21,42.0000,21.0000
1984-02-27 17:00:00 UTC,2445758.208333,28.7317,-95.2428,0215,12.98,39.94,42.0000,18.0000
1984-02-27 17:30:00 UTC,2445758.229167,28.7317,-95.2428,0215,11.85,41.33,43.0000,16.0000
1984-02-27 18:00:00 UTC,2445758.250000,28.7317,-95.2428,0215,10.40,41.72,43.0000,14.0000
1984-02-27 18:30:00 UTC,2445758.270833,28.7317,-95.2428,0215,8.73,41.08,42.0000,12.0000
1984-02-27 19:00:00 UTC,2445758.291667,28.7317,-95.2428,0215,6.26,39.51,40.0000,9.0000
1984-02-27 19:30:00 UTC,2445758.312500,28.7317,-95.2428,0215,3.97,37.79,38.0000,6.0000
1984-02-27 20:00:00 UTC,2445758.333333,28.7317,-95.2428,0215,3.87,36.80,37.0000,6.0000
1984-02-27 20:30:00 UTC,2445758.354167,28.7317,-95.2428,0215,4.39,35.73,36.0000,7.0000
1984-02-27 21:00:00 UTC,2445758.375000,28.7317,-95.2428,0215,6.25,35.45,36.0000,10.0000
1984-02-27 21:30:00 UTC,2445758.395833,28.7317,-95.2428,0215,7.28,34.24,35.0000,12.0000
1984-02-27 22:00:00 UTC,2445758.416667,28.7317,-95.2428,0215,7.87,34.10,35.0000,13.0000
1984-02-27 22:30:00 UTC,2445758.437500,28.7317,-95.2428,0215,7.87,34.10,35.0000,13.0000
1984-02-27 23:00:00 UTC,2445758.458333,28.7317,-95.2428,0215,7.98,32.02,33.0000,14.0000
1984-02-27 23:30:00 UTC,2445758.479167,28.7317,-95.2428,0215,10.09,29.31,31.0000,19.0000
1984-02-28 00:00:00 UTC,2445758.500000,28.7317,-95.2428,0215,12.71,26.07,29.0000,26.0000
1984-02-28 00:30:00 UTC,2445758.520833,28.7317,-95.2428,0215,14.71,22.64,27.0000,33.0000
1984-02-28 01:00:00 UTC,2445758.541667,28.7317,-95.2428,0215,15.87,21.84,27.0000,36.0000
1984-02-28 01:30:00 UTC,2445758.562500,28.7317,-95.2428,0215,15.49,22.12,27.0000,35.0000
1984-02-28 02:00:00 UTC,2445758.583333,28.7317,-95.2428,0215,13.62,20.97,25.0000,33.0000
1984-02-28 02:30:00 UTC,2445758.604167,28.7317,-95.2428,0215,12.72,20.35,24.0000,32.0000
1984-02-28 03:00:00 UTC,2445758.625000,28.7317,-95.2428,0215,11.00,19.05,22.0000,30.0000
1984-02-28 03:30:00 UTC,2445758.645833,28.7317,-95.2428,0215,9.86,18.54,21.0000,28.0000
1984-02-28 04:00:00 UTC,2445758.666667,28.7317,-95.2428,0215,10.18,18.37,21.0000,29.0000
1984-02-28 04:30:00 UTC,2445758.687500,28.7317,-95.2428,0215,11.00,19.05,22.0000,30.0000
1984-02-28 05:00:00 UTC,2445758.708333,28.7317,-95.2428,0215,10.82,18.00,21.0000,31.0000
1984-02-28 05:30:00 UTC,2445758.729167,28.7317,-95.2428,0215,8.71,13.42,16.0000,33.0000
1984-02-28 06:00:00 UTC,2445758.750000,28.7317,-95.2428,0215,5.83,9.33,11.0000,32.0000
1984-02-28 06:30:00 UTC,2445758.770833,28.7317,-95.2428,0215,3.38,7.25,8.0000,25.0000
1984-02-28 07:00:00 UTC,2445758.791667,28.7317,-95.2428,0215,2.74,7.52,8.0000,20.0000
1984-02-28 07:30:00 UTC,2445758.812500,28.7317,-95.2428,0215,2.93,8.51,9.0000,19.0000
1984-02-28 08:00:00 UTC,2445758.833333,28.7317,-95.2428,0215,3.23,8.40,9.0000,21.0000
1984-02-28 08:30:00 UTC,2445758.854167,28.7317,-95.2428,0215,4.82,9.89,11.0000,26.0000
1984-02-28 09:00:00 UTC,2445758.875000,28.7317,-95.2428,0215,6.10,11.48,13.0000,28.0000
1984-02-28 09:30:00 UTC,2445758.895833,28.7317,-95.2428,0215,6.10,11.48,13.0000,28.0000
1984-02-28 10:00:00 UTC,2445758.916667,28.7317,-95.2428,0215,6.30,11.37,13.0000,29.0000
1984-02-28 10:30:00 UTC,2445758.937500,28.7317,-95.2428,0215,6.18,10.29,12.0000,31.0000
1984-02-28 11:00:00 UTC,2445758.958333,28.7317,-95.2428,0215,5.15,8.57,10.0000,31.0000
1984-02-28 11:30:00 UTC,2445758.979167,28.7317,-95.2428,0215,4.50,7.79,9.0000,30.0000
1984-02-28 12:00:00 UTC,2445759.000000,28.7317,-95.2428,0215,4.69,8.83,10.0000,28.0000
1984-02-28 12:30:00 UTC,2445759.020833,28.7317,-95.2428,0215,3.80,8.16,9.0000,25.0000
1984-02-28 13:00:00 UTC,2445759.041667,28.7317,-95.2428,0215,2.87,7.47,8.0000,21.0000
1984-02-28 13:30:00 UTC,2445759.062500,28.7317,-95.2428,0215,3.37,8.34,9.0000,22.0000
1984-02-28 14:00:00 UTC,2445759.083333,28.7317,-95.2428,0215,5.07,10.88,12.0000,25.0000
1984-02-28 14:30:00 UTC,2445759.104167,28.7317,-95.2428,0215,6.14,12.58,14.0000,26.0000
1984-02-28 15:00:00 UTC,2445759.125000,28.7317,-95.2428,0215,6.79,12.24,14.0000,29.0000
1984-02-28 15:30:00 UTC,2445759.145833,28.7317,-95.2428,0215,8.48,13.57,16.0000,32.0000
1984-02-28 16:00:00 UTC,2445759.166667,28.7317,-95.2428,0215,8.48,13.57,16.0000,32.0000
1984-02-28 16:30:00 UTC,2445759.187500,28.7317,-95.2428,0215,7.21,12.00,14.0000,31.0000
1984-02-28 17:00:00 UTC,2445759.208333,28.7317,-95.2428,0215,6.50,11.26,13.0000,30.0000
1984-02-28 17:30:00 UTC,2445759.229167,28.7317,-95.2428,0215,5.45,10.69,12.0000,27.0000
1984-02-28 18:00:00 UTC,2445759.250000,28.7317,-95.2428,0215,3.91,9.21,10.0000,23.0000
1984-02-28 18:30:00 UTC,2445759.270833,28.7317,-95.2428,0215,3.58,9.34,10.0000,21.0000
1984-02-28 19:00:00 UTC,2445759.291667,28.7317,-95.2428,0215,4.07,9.14,10.0000,24.0000
1984-02-28 19:30:00 UTC,2445759.312500,28.7317,-95.2428,0215,5.16,9.71,11.0000,28.0000
1984-02-28 20:00:00 UTC,2445759.333333,28.7317,-95.2428,0215,5.33,9.62,11.0000,29.0000
1984-02-28 20:30:00 UTC,2445759.354167,28.7317,-95.2428,0215,4.23,7.95,9.0000,28.0000
1984-02-28 21:00:00 UTC,2445759.375000,28.7317,-95.2428,0215,4.50,7.79,9.0000,30.0000
1984-02-28 21:30:00 UTC,2445759.395833,28.7317,-95.2428,0215,6.47,8.90,11.0000,36.0000
1984-02-28 22:00:00 UTC,2445759.416667,28.7317,-95.2428,0215,8.53,9.81,13.0000,41.0000
1984-02-28 22:30:00 UTC,2445759.437500,28.7317,-95.2428,0215,10.23,10.97,15.0000,43.0000
1984-02-28 23:00:00 UTC,2445759.458333,28.7317,-95.2428,0215,9.37,10.40,14.0000,42.0000
1984-02-28 23:30:00 UTC,2445759.479167,28.7317,-95.2428,0215,7.87,9.06,12.0000,41.0000
1984-02-29 00:00:00 UTC,2445759.500000,28.7317,-95.2428,0215,7.87,9.06,12.0000,41.0000
1984-02-29 00:30:00 UTC,2445759.520833,28.7317,-95.2428,0215,7.71,9.19,12.0000,40.0000
1984-02-29 01:00:00 UTC,2445759.541667,28.7317,-95.2428,0215,7.55,9.33,12.0000,39.0000
1984-02-29 01:30:00 UTC,2445759.562500,28.7317,-95.2428,0215,7.39,9.46,12.0000,38.0000
1984-02-29 02:00:00 UTC,2445759.583333,28.7317,-95.2428,0215,7.39,9.46,12.0000,38.0000
1984-02-29 02:30:00 UTC,2445759.604167,28.7317,-95.2428,0215,7.39,9.46,12.0000,38.0000
1984-02-29 03:00:00 UTC,2445759.625000,28.7317,-95.2428,0215,7.55,9.33,12.0000,39.0000
1984-02-29 03:30:00 UTC,2445759.645833,28.7317,-95.2428,0215,7.39,9.46,12.0000,38.0000
1984-02-29 04:00:00 UTC,2445759.666667,28.7317,-95.2428,0215,7.39,9.46,12.0000,38.0000
1984-02-29 04:30:00 UTC,2445759.687500,28.7317,-95.2428,0215,8.00,10.24,13.0000,38.0000
1984-02-29 05:00:00 UTC,2445759.708333,28.7317,-95.2428,0215,7.39,9.46,12.0000,38.0000
1984-02-29 05:30:00 UTC,2445759.729167,28.7317,-95.2428,0215,7.22,9.58,12.0000,37.0000
1984-02-29 06:00:00 UTC,2445759.750000,28.7317,-95.2428,0215,6.77,8.67,11.0000,38.0000
1984-02-29 06:30:00 UTC,2445759.770833,28.7317,-95.2428,0215,7.07,8.43,11.0000,40.0000
1984-02-29 07:00:00 UTC,2445759.791667,28.7317,-95.2428,0215,6.77,8.67,11.0000,38.0000
1984-02-29 07:30:00 UTC,2445759.812500,28.7317,-95.2428,0215,5.74,8.19,10.0000,35.0000
1984-02-29 08:00:00 UTC,2445759.833333,28.7317,-95.2428,0215,5.45,8.39,10.0000,33.0000
1984-02-29 08:30:00 UTC,2445759.854167,28.7317,-95.2428,0215,4.23,7.95,9.0000,28.0000